Regional Weather Roundup
Issued by NWS Newport/Morehead, NC

Home | Current Version | Previous Version | Text Only | Print | Product List | Glossary On
Versions: 1 2 3 4 5 6 7 8 9 10 11 12 13 14 15 16 17 18 19 20 21 22 23 24 25 26 27 28 29 30 31 32 33 34 35 36 37 38 39 40 41 42 43 44 45 46 47 48 49 50
000
ASUS42 KMHX 141022
RWRMHX
WEATHER ROUNDUP FOR EASTERN NORTH CAROLINA
NATIONAL WEATHER SERVICE NEWPORT/MOREHEAD CITY NC
600 AM EDT MON JUL 14 2014

NOTE: "FAIR" INDICATES FEW OR NO CLOUDS BELOW 12,000 FEET
WITH NO SIGNIFICANT WEATHER AND/OR OBSTRUCTIONS TO VISIBILITY

NCZ015>017-031-032-045>047-102-103-141100-
NORTH COAST

CITY           SKY/WX    TMP DP  RH WIND       PRES   REMARKS
EDENTON        PTCLDY    75  73  93 SW8       30.02S
ELIZABETH CITY CLEAR     74  72  93 SW7       30.01S
KITTY HAWK     SUNNY     77  74  91 SW6       30.01S
MANTEO         NOT AVBL

$$

NCZ045>047-081-094-103-104-141100-
CENTRAL COAST

CITY           SKY/WX    TMP DP  RH WIND       PRES   REMARKS
FRISCO         CLEAR     79  75  87 W8        30.04S
SWANQUARTER      N/A     79 N/A N/A SW14      30.00S

$$

NCZ095-097-098-100-101-141100-
SOUTHERN COAST

CITY           SKY/WX    TMP DP  RH WIND       PRES   REMARKS
BEAUFORT       PTCLDY    80  74  81 SW9       30.04S
CEDAR ISLAND     N/A     77 N/A N/A SW3       30.06S
JACKSONVILLE   CLEAR     73  71  93 W3        30.03S
NEWPORT        NOT AVBL
PINEY ISLAND   SUNNY     77  75  93 SW3       30.03F
WILMINGTON     CLEAR     75  72  90 W6        30.04S


$$

NCZ011>013-027>030-043-044-078>080-089-090>093-098-141100-
COASTAL PLAIN

CITY           SKY/WX    TMP DP  RH WIND       PRES   REMARKS
AHOSKIE        PTCLDY    73  71  93 S5        30.01S
CLINTON        CLEAR     72  72 100 CALM      30.03F
ELIZABETHTOWN  CLEAR     73  73  99 CALM      30.04R
GOLDSBORO      PTCLDY    73  73  99 S3        30.00F
GREENVILLE     CLEAR     73  72  94 SW5       30.04S
HAVELOCK       CLEAR     74  71  91 CALM      30.04F
KENANSVILLE    CLEAR     71  70  95 CALM      30.04S
KINSTON        CLEAR     73  72  96 SW6       30.03S
NEW BERN       CLEAR     75  71  87 SW3       30.04S
RICHLANDS      CLEAR     72  68  88 CALM      30.04S
ROANOKE RAPIDS NOT AVBL
ROCKY MOUNT    CLOUDY    74  72  93 S7        30.01F
WASHINGTON     CLEAR     73  72  95 SW3       30.03S
WHITEVILLE     CLEAR     73  71  94 CALM      30.03S

$$

AMZ130-135-150-152-154-156-158-170-250-252-270-ANZ085-086-088-633-658-670-141100-
MARINE OBSERVATIONS

STATION/POSITION TIME  TEMP    WIND        PRES    WAVE   SWELL
                       AIR SEA DIR/SP/G            HT/PER HT/PER
                 (UTC) (F)     (DEG/KT/KT) (MB)    (FT/S) (FT/S)
CHESAPEAKE LIGHT NOT AVBL
BUOY 44014       1000   78 76  220/ 12/ 16 1015.9    2/ 8   2/ 8
DUCK             1000   78 64  230/ 12/ 16 1015.7
2E DUCK          1000                        N/A     2/ 8
OREGON INLET     1000   79 83  230/ 12/ 14 1016.5
BUOY 44095       1000      76                N/A     3/ 8
HATTERAS CG      1000   78 83  230/  8/ 10 1017.4
DIAMOND BUOY     1000          VRB 14/ 17  1017.0    4/ 4   2/ 8
17S OCRACOKE INL NOT AVBL
CAPE LOOKOUT     1000   80     230/  7/ 10 1017.1
BEAUFORT LAB     1000   80 83  250/  6/ 10 1016.7
30 SE NEW RIVER  1000   80 82  220/ 16/ 17 1017.4    4/ 4   2/ 8
5 SE WRIGHTSVILL 1000   75 82  280/ 10/ 12 1017.8
FRYING PAN BUOY  NOT AVBL
BUOY 41001       NOT AVBL
BUOY 41002       0937   82 83  240/ 12/ 14 1019.6    3/ 9   2/ 9
BUOY 41004       1000   81 82  230/ 12/ 16 1016.9    4/ 5   2/ 8

$$



USA.gov is the U.S. government's official web portal to all federal, state and local government web resources and services.